Home > Weather > Barrow > Past weeks

Flag for USA Weather for the Past 2 Weeks in Barrow, Alaska, USA

Now
26 °F

Low clouds.


Feels Like: 16 °F
Forecast: 21 / 26 °F
Wind: 12 mph from Northeast

Location: Post Rogers Memorial Airport

Current Time: May 3, 2016 at 2:16:54 PM

Latest Report: May 3, 2016 at 12:53 PM


Visibility: 9 mi

Pressure: 29.94 "Hg

Humidity: 88%

Dew Point: 23 °F

Location of BarrowLocation

Historic Weather in Barrow — Graph

°F

Barrow Temperature Yesterday

Maximum temperature yesterday: 29 °F (at 6:53 PM)
Minimum temperature yesterday: 20 °F (at 9:56 AM)
Average temperature yesterday: 25 °F

High & Low Weather Summary for the Past Weeks

 TemperatureHumidityPressure
High30 °F (May 1, 3:53 PM)100% (Apr 27, 1:53 AM)30.42 "Hg (Apr 27, 1:53 AM)
Low3 °F (Apr 18, 10:53 PM)78% (Apr 24, 8:53 PM)29.85 "Hg (Apr 30, 11:53 PM)
Average21 °F89%30.05 "Hg
* Reported Apr 18 12:53 PM — May 3 12:53 PM, Barrow, Weather by CustomWeather, © 2016

Note: Actual official high and low records may vary slightly from our data, if they occured in-between our weather recording intervals... More about our weather records

Advertising

Barrow Weather History for the Previous 24 Hours

Scroll right to see more
 ConditionsComfort  
Time TempWeatherWind HumidityBarometerVisibility
12:53 PM
Tue, May 3
26 °FLow clouds.12 mph88%29.94 "Hg9 mi
11:53 AM26 °FOvercast.12 mph92%29.94 "Hg10 mi
10:53 AM26 °FOvercast.7 mph88%29.94 "Hg9 mi
9:53 AM26 °FOvercast.7 mph88%29.94 "Hg10 mi
8:53 AM25 °FLow clouds.14 mph92%29.95 "Hg10 mi
7:53 AM25 °FLow clouds.14 mph92%29.95 "Hg10 mi
6:56 AM26 °FLow clouds.10 mph92%29.94 "Hg9 mi
5:53 AM26 °FLow clouds.12 mph92%29.95 "Hg9 mi
4:53 AM26 °FIce fog.13 mph96%29.95 "Hg5 mi
3:53 AM26 °FLow clouds.15 mph96%29.95 "Hg8 mi
2:53 AM27 °FLight snow. Low clouds.16 mph92%29.95 "Hg6 mi
2:00 AM28 °FLight snow. Low clouds.15 mph93%29.93 "Hg5 mi
12:53 AM28 °FLight snow. Ice fog.10 mph93%29.93 "Hg4 mi
11:53 PM
Mon, May 2
28 °FOvercast.9 mph89%29.93 "Hg10 mi
10:53 PM27 °FOvercast.8 mph89%29.93 "Hg10 mi
9:53 PM27 °FMostly cloudy.7 mph89%29.93 "Hg10 mi
8:53 PM27 °FOvercast.9 mph85%29.93 "Hg10 mi
7:53 PM27 °FLow clouds.12 mph89%29.93 "Hg10 mi
6:53 PM29 °FOvercast.10 mph85%29.93 "Hg10 mi
5:53 PM28 °FLow clouds.9 mph85%29.93 "Hg10 mi
4:53 PM27 °FMore clouds than sun.9 mph85%29.94 "Hg10 mi
3:53 PM27 °FOvercast.9 mph85%29.93 "Hg10 mi
2:53 PM25 °FLow clouds.10 mph88%29.94 "Hg10 mi
Weather by CustomWeather, © 2016

See weather overviewHow to use our weather pages